Flag for Marshall Islands Weather past 2 weeks in Majuro, Marshall Islands

Now
85 °F

Overcast.


Feels Like: 91 °F
Forecast: 81 / 85 °F
Wind: 14 mph from East

Location: Majuro Atoll

Current Time: Jan 26, 2015 at 10:36:19 AM

Latest Report: Jan 26, 2015 at 9:50 AM


Visibility: 15 mi

Pressure: 29.81 "Hg

Humidity: 65%

Dew point: 72 °F

Location of MajuroLocation

Historic Weather in Majuro — Graph

°F

Majuro temperature yesterday

Maximum temperature yesterday: 87 °F (at 2:51 PM)
Minimum temperature yesterday: 81 °F (at 12:56 AM)
Average temperature yesterday: 84 °F

Past Weeks' High & Low Weather Summary

 TemperatureHumidityPressure
High87 °F (Jan 25, 2:51 PM)95% (Jan 15, 7:54 AM)29.98 "Hg (Jan 15, 7:54 AM)
Low77 °F (Jan 15, 7:54 AM)62% (Jan 23, 11:50 AM)29.73 "Hg (Jan 12, 3:51 PM)
Average82 °F79%29.84 "Hg
* Reported Jan 11 8:52 AM — Jan 26 8:50 AM, Majuro, Weather by CustomWeather, © 2014

Note: Actual official high and low records may vary slightly from our data, if they occured in-between our weather recording intervals... More about our weather records

Advertising

Majuro weather history for previous 24 hours

 ConditionsComfort  
Time TempWeatherWind HumidityBarometerVisibility
8:50 AM
Jan 26
84 °FMore clouds than sun.14 mph69%29.81 "Hg15 mi
7:55 AM83 °FMore clouds than sun.10 mph71%29.80 "Hg15 mi
6:52 AM82 °FMostly cloudy.15 mph74%29.80 "Hg15 mi
5:54 AM81 °FPartly cloudy.14 mph82%29.79 "Hg10 mi
4:55 AM82 °FPartly cloudy.12 mph74%29.79 "Hg15 mi
3:50 AM82 °FPartly cloudy.12 mph71%29.78 "Hg15 mi
2:57 AM81 °FPassing clouds.12 mph73%29.79 "Hg15 mi
1:52 AM82 °FPartly cloudy.9 mph72%29.81 "Hg15 mi
12:51 AM82 °FPassing clouds.16 mph70%29.83 "Hg15 mi
11:51 PM
Jan 25
82 °FPassing clouds.13 mph69%29.84 "Hg15 mi
10:52 PM82 °FPassing clouds.14 mph72%29.85 "Hg15 mi
9:52 PM82 °FPassing clouds.15 mph72%29.85 "Hg15 mi
8:53 PM82 °FPassing clouds.9 mph71%29.85 "Hg15 mi
7:52 PM83 °FPassing clouds.13 mph73%29.83 "Hg15 mi
6:53 PM83 °FScattered clouds.15 mph74%29.82 "Hg15 mi
5:53 PM83 °FScattered clouds.13 mph73%29.80 "Hg15 mi
4:51 PM86 °FScattered clouds.12 mph67%29.79 "Hg20 mi
3:52 PM87 °FScattered clouds.13 mph66%29.78 "Hg20 mi
2:51 PM87 °FScattered clouds.12 mph65%29.79 "Hg20 mi
1:53 PM87 °FScattered clouds.13 mph65%29.81 "Hg20 mi
12:51 PM87 °FScattered clouds.15 mph64%29.83 "Hg20 mi
11:53 AM87 °FPartly sunny.16 mph66%29.85 "Hg20 mi
10:51 AM86 °FPartly sunny.22 mph68%29.86 "Hg20 mi
Weather by CustomWeather, © 2014

See weather overviewHow to use our weather pages